PUEBLO AVIATION WEATHER

 


 

 

Check out the latest edition of "The Front" - A Regional Newsletter dedicated to Aviation Weather

Aviation Weather Center Standard Briefing 

 


 

 

Colorado Springs Airport(KCOS) Aviation Decision Support Information Page  

 

 

  Terminal Aerodrome Forecasts

Interactive TAF Java Tool

Plotted TAFs and/or Text TAFs

Text TAFs

Pueblo KPUB

000
FTUS45 KPUB 012344
TAFPUB
TAF
KPUB 012344Z 0200/0224 31015KT P6SM VCTS FEW035 SCT050CB BKN090
      TEMPO 0200/0202 VRB20G35KT -SHRA BKN050
     FM020200 35015G30KT P6SM VCSH SCT050 BKN090
     FM020700 34014G24KT P6SM SCT060 BKN110
     FM021200 33009KT P6SM FEW090
     FM021900 09008KT P6SM FEW090=
Colorado Springs KCOS
000
FTUS45 KPUB 012344
TAFCOS
TAF
KCOS 012344Z 0200/0224 21012KT P6SM VCTS SCT040CB BKN080
      TEMPO 0200/0201 VRB20G30KT -SHRA BKN040
     FM020100 35018G28KT P6SM VCSH SCT040 BKN080
     FM020600 34012G22KT P6SM SCT050 BKN100
     FM021200 34012KT P6SM FEW080
     FM021900 20011KT P6SM FEW080=
Alamosa KALS

000
FTUS45 KPUB 012344
TAFALS
TAF
KALS 012344Z 0200/0224 32010G20KT P6SM VCSH SCT040 BKN080
     FM020300 VRB06KT P6SM SCT060 BKN140
     FM020600 VRB06KT P6SM FEW140=
Denver KDEN

000
FTUS45 KBOU 020008 AAA
TAFDEN
TAF AMD
KDEN 020008Z 0200/0306 36014G20KT P6SM SCT015 BKN023 OVC040
     FM020100 35014KT P6SM SCT025 BKN035 OVC050
      TEMPO 0202/0206 4SM -SHRA BR BKN015 OVC025
     FM020600 32008KT P6SM VCSH SCT045 BKN060
     FM021200 29006KT P6SM FEW010 SCT070 BKN120
     FM021600 23008KT P6SM FEW120 SCT200
     FM022000 31006KT P6SM FEW090 SCT120
     FM030400 01012KT P6SM SCT080 BKN120=
  

 

Pilot Reports (PIREPs)

Aircraft Icing U.S. NESE
NCSC
NWSW
Sky Conditions U.S. NESE
NCSC
NWSW
Turbulence U.S. NESE
NCSC
NWSW

 

SOARING FORECAST

Experimental product for soaring guidance, Southern Front Range

 

 

 

METARS:

Pueblo


Colorado Springs


Denver

Alamosa


 

 


 

 

 

 

RADAR AND SATELLITE

radar
pueblo radar
 

 

Latest Radar from Pueblo
Click Image to Enlarge

 

IR Satellite
Colorado Infrared Satellite - Click to enlarge
Latest Colorado IR Satellite Image
Click Image to Enlarge
Vis Satellite
Colorado Visible Satellite - Click to enlarge
Latest Colorado Visible Satellite Image
Click Image to Enlarge

 

WATCHES AND WARNINGS

TEXT OF ALL COLORADO WARNINGS

 

Latest Watches And Warnings

 

 

CENTER WEATHER ADVISORIES

 

AIRMETS/SIGMETS

 

 

 


 

FORECAST DISCUSSION: FA

 

 


 

OBSERVED UPPER AIR WINDS

(COURTESY RAP/NCAR)

 

 


 

FORECAST UPPER AIR WINDS

 

 


 

SURFACE OBSERVATIONS

(COURTESY RAP/NCAR)

 

 

 :

 

NOTAMS:

https://www.notams.jcs.mil/geo/radiusForm.html

 

 

 

 

 

 

 

 

 

 

 

 

 

 

 

 


 

 

Constant Pressure Plots From the Storm Prediction Center

Link to the Sky Spotter Program Homepage

 

Other Aviation Links

NWS Aviation Weather Center

ADDS - Aviation Page
FAA Homepage

 


 

 

 

 

 

 

 

 

 

 

 

 

 

 

 

 

 

 

 

 

 

 

 

 

 

 

 

 

 

 

 

 

 

Plots of AIRMETS / SIGMETS

Text AIRMETS / SIGMETS by Center 

Interactive AIRMET/SIGMET Java Tool

 

 



USA.gov is the U.S. government's official web portal to all federal, state and local government web resources and services.